Location: Colle Santa Colomba
(42.0333°N, 12.5667°E)
Time: 20:04:40
(UTC+00:00)

Cosmos 2263 Rocket - Pass Details

Date: 25 October 2021
Orbit: 825 x 847 km, 71.0° (Epoch: 04 December)

Event Time Altitude Azimuth Distance (km) Brightness Sun altitude
Rises 16:32:57 0° 336° (NNW) 3,371 5.5 -4.4°
Reaches altitude 10° 16:35:23 10° 336° (NNW) 2,433 4.8 -4.9°
Maximum altitude 16:40:58 87° 65° (ENE) 832 2.2 -5.9°
Drops below altitude 10° 16:46:32 10° 157° (SSE) 2,422 4.5 -6.9°
Sets 16:48:57 0° 157° (SSE) 3,354 5.2 -7.3°
